[[{"header":{"parameterUnit":"m.s-1","parameterCategory":1,"la1":30.2991,"la2":30.254,"lo1":-89.0895,"lo2":-89.0444,"dy":0.0017,"dx":0.0017,"nx":28,"ny":28,"refTime":"2025-12-06T09:00:00:Z","depth":0,"parameterNumber":2,"parameterNumberName":"U-component_of_WINDS"},"data":[0,0,0,0,0,0,0,0,0,0,0,0,0,0,0,0,0,0,0,0,0,0,0,0,0,0,0,0,0,0,0,0,0,0,0,0,0,0,0,0,0,0,0,0,0,0,0,0,0,0,0,0,0,0,0,0,0,0,-0.7675,-0.7675,0,-0.7696,-0.7696,-0.7696,-0.7645,-0.7643,-0.7641,-0.764,-0.7666,-0.7668,-0.767,0,0,0,0,0,0,0,0,0,0,0,0,0,-0.7597,-0.7599,-0.7675,-0.7675,-0.7676,-0.7696,-0.7696,-0.7696,-0.7645,-0.7643,-0.7641,-0.7639,-0.7665,-0.7668,-0.7671,0,0,0,0,0,0,0,0,0,0,0,0,0,-0.7626,-0.7599,-0.7675,-0.7652,-0.765,-0.7696,-0.7696,-0.7696,-0.7645,-0.7643,-0.764,-0.7638,-0.7664,-0.7668,-0.7671,-0.7741,0,0,-0.7681,-0.7683,0,0,0,0,0,0,0,0,-0.7624,-0.7629,-0.7655,-0.7654,-0.7652,-0.7665,-0.7678,-0.7712,-0.7646,-0.7647,-0.764,-0.7637,-0.7668,-0.7671,-0.768,-0.7742,-0.7743,-0.7681,-0.7684,-0.7685,-0.7686,0,0,0,0,0,0,0,-0.7622,-0.7628,-0.7683,-0.7656,-0.7654,-0.7643,-0.7644,-0.7684,-0.7671,-0.7647,-0.7643,-0.7646,-0.7667,-0.7677,-0.7681,-0.7744,-0.7681,-0.7684,-0.7686,-0.7688,-0.7867,-0.787,0,0,0,0,0,0,-0.7622,-0.7626,-0.7683,-0.7684,-0.7632,-0.7646,-0.7648,-0.7663,-0.7671,-0.7669,-0.7648,-0.7644,-0.7673,-0.7677,-0.7681,-0.7766,-0.7685,-0.7688,-0.769,-0.7864,-0.7868,-0.7871,0,0,0,0,0,0,-0.7621,-0.7628,-0.7682,-0.7654,-0.766,-0.765,-0.7668,-0.7665,-0.7675,-0.7672,-0.767,-0.7661,-0.7671,-0.7677,-0.7727,-0.7766,-0.769,-0.7693,-0.7861,-0.7865,-0.7869,-0.7934,0,0,0,0,0,0,-0.7619,-0.7628,-0.7653,-0.7655,-0.7662,-0.7725,-0.767,-0.7667,-0.7681,-0.7675,-0.7683,-0.7682,-0.7669,-0.7722,-0.773,-0.7769,-0.7695,-0.7858,-0.7863,-0.7868,-0.7928,-0.794,-0.7949,0,0,0,0,0,-0.7616,-0.767,-0.7654,-0.7661,-0.7692,-0.7728,-0.7732,-0.7714,-0.7684,-0.771,-0.7708,-0.7682,-0.776,-0.7728,-0.7736,-0.7777,-0.7855,-0.7862,-0.7868,-0.7923,-0.7937,-0.7949,0,0,0,0,0,0,-0.7674,-0.767,-0.7652,-0.7708,-0.7719,-0.7719,-0.7751,-0.7729,-0.775,-0.7744,-0.7723,-0.7725,-0.778,-0.7783,-0.7747,-0.7846,-0.7803,-0.7811,-0.7842,-0.7855,-0.7866,-0.7865,-0.7698,0,0,0,0,0,-0.7693,-0.772,-0.7716,-0.7766,-0.7772,-0.7761,-0.7775,-0.7761,-0.7772,-0.7776,-0.7778,-0.7791,-0.7818,-0.7837,-0.7862,-0.7928,-0.7931,-0.7961,-0.7971,-0.798,-0.7988,-0.8026,-0.804,-0.7891,-0.7891,-0.7891,0,0,-0.7733,-0.7734,-0.7753,-0.7778,-0.7784,-0.7815,-0.7765,-0.7799,-0.7822,-0.7782,-0.7829,-0.7831,-0.7845,-0.7904,-0.793,-0.7908,-0.8029,-0.7988,-0.7995,-0.7998,-0.8034,-0.8048,-0.806,-0.7895,-0.7895,-0.7894,0,0,-0.7821,-0.7824,-0.7867,-0.7875,-0.7885,-0.7877,-0.7888,-0.7892,-0.7891,-0.7938,-0.7909,-0.7938,-0.7985,-0.7996,-0.8008,-0.8104,-0.8082,-0.8113,-0.8169,-0.8206,-0.8218,-0.8228,-0.8265,-0.8278,-0.812,-0.812,-0.8121,0,-0.787,-0.7913,-0.7892,-0.7929,-0.7942,-0.7906,-0.7951,-0.796,-0.7978,-0.7989,-0.7964,-0.8024,-0.803,-0.8093,-0.8116,-0.8126,-0.814,-0.8112,-0.8218,-0.8228,-0.8237,-0.8272,-0.8285,-0.8124,-0.8124,-0.8123,-0.8123,0,-0.7974,-0.8005,-0.8039,-0.8057,-0.8074,-0.8114,-0.8102,-0.8121,-0.8107,-0.8103,-0.8153,-0.8159,-0.8186,-0.82,-0.8185,-0.8261,-0.8248,-0.822,-0.8176,-0.8256,-0.8288,-0.8301,-0.813,-0.8128,-0.8127,-0.8126,0,0,-0.8099,-0.8106,-0.8119,-0.8127,-0.8137,-0.8161,-0.8202,-0.8226,-0.8245,-0.826,-0.8295,-0.8336,-0.8312,-0.8326,-0.8313,-0.8345,-0.8424,-0.8314,-0.8315,-0.8336,-0.8511,-0.8532,-0.8548,-0.8409,-0.8411,-0.8413,-0.851,0,-0.8188,-0.8255,-0.8239,-0.8307,-0.8336,-0.8304,-0.8339,-0.835,-0.8348,-0.8375,-0.8373,-0.8404,-0.8368,-0.8377,-0.8407,-0.8408,-0.8459,-0.84,-0.8444,-0.8446,-0.8443,-0.8564,-0.8586,-0.8678,-0.8523,-0.8525,-0.8526,0,-0.8301,-0.8319,-0.839,-0.8396,-0.8408,-0.844,-0.8463,-0.8488,-0.8501,-0.8497,-0.8514,-0.8495,-0.8538,-0.8493,-0.8553,-0.8514,-0.8531,-0.8534,-0.8537,-0.8542,-0.8491,-0.8574,-0.8706,-0.8721,-0.8545,-0.8544,-0.8542,0,-0.8387,-0.843,-0.8478,-0.8486,-0.8494,-0.8518,-0.8523,-0.8533,-0.855,-0.8571,-0.8582,-0.8608,-0.8623,-0.8645,-0.8635,-0.8603,-0.8698,-0.8652,-0.8699,-0.8699,-0.8721,-0.872,-0.886,-0.873,-0.873,-0.8729,-0.8729,0,-0.8489,-0.8534,-0.8517,-0.8547,-0.8597,-0.8579,-0.863,-0.8631,-0.8641,-0.8673,-0.8647,-0.8677,-0.8661,-0.8692,-0.8685,-0.8737,-0.8744,-0.8744,-0.8742,-0.8747,-0.8748,-0.8759,-0.8753,-0.8733,-0.8732,-0.8731,-0.8731,0,-0.8594,-0.8584,-0.8635,-0.8639,-0.8641,-0.8679,-0.8683,-0.8712,-0.8709,-0.8749,-0.8758,-0.8753,-0.8787,-0.8779,-0.8817,-0.8813,-0.888,-0.8869,-0.8875,-0.8873,-0.8921,-0.8917,-0.9074,-0.9095,-0.895,-0.8951,-0.8953,0,-0.8661,-0.8694,-0.8702,-0.8721,-0.8727,-0.8758,-0.8775,-0.8759,-0.8778,-0.8797,-0.8825,-0.8856,-0.8881,-0.8939,-0.894,-0.897,-0.8961,-0.9014,-0.8965,-0.897,-0.8964,-0.8962,-0.8967,-0.9024,-0.9025,-0.9027,-0.9028,0,-0.878,-0.8774,-0.8798,-0.8823,-0.8844,-0.8862,-0.8878,-0.8896,-0.8881,-0.8905,-0.8939,-0.8958,-0.8997,-0.9031,-0.9059,-0.9066,-0.9046,-0.9043,-0.9056,-0.9062,-0.9065,-0.9066,-0.8903,-0.904,-0.9038,-0.9038,-0.9037,-0.9036,-0.8869,-0.8899,-0.8909,-0.8938,-0.8949,-0.8965,-0.8993,-0.8993,-0.9021,-0.9051,-0.904,-0.908,-0.9095,-0.913,-0.9141,-0.9174,-0.9155,-0.9173,-0.9178,-0.9183,-0.919,-0.9059,-0.9179,-0.9179,-0.9179,-0.9178,-0.9178,0,-0.8989,-0.8994,-0.9021,-0.9045,-0.9069,-0.9046,-0.9063,-0.9085,-0.912,-0.9135,-0.916,-0.9201,-0.9234,-0.9238,-0.927,-0.9295,-0.9287,-0.9304,-0.9303,-0.9306,-0.9204,-0.9191,-0.9311,-0.9311,-0.9311,-0.9311,-0.9311,-0.9311,-0.9054,-0.9103,-0.9099,-0.9154,-0.916,-0.9198,-0.921,-0.9226,-0.9238,-0.9284,-0.9311,-0.9313,-0.9325,-0.9357,-0.9387,-0.9388,-0.9402,-0.9423,-0.942,-0.9326,-0.9313,-0.93,-0.9287,-0.9426,-0.9426,-0.9519,-0.952,-0.9521]},{"header":{"parameterUnit":"m.s-1","parameterCategory":1,"la1":30.2991,"la2":30.254,"lo1":-89.0895,"lo2":-89.0444,"dy":0.0017,"dx":0.0017,"nx":28,"ny":28,"refTime":"2025-12-06T09:00:00:Z","depth":0,"parameterNumber":3,"parameterNumberName":"V-component_of_WINDS"},"data":[0,0,0,0,0,0,0,0,0,0,0,0,0,0,0,0,0,0,0,0,0,0,0,0,0,0,0,0,0,0,0,0,0,0,0,0,0,0,0,0,0,0,0,0,0,0,0,0,0,0,0,0,0,0,0,0,0,0,-2.4039,-2.4038,0,-2.3919,-2.3918,-2.3916,-2.3827,-2.3826,-2.3825,-2.3825,-2.3693,-2.369,-2.3687,0,0,0,0,0,0,0,0,0,0,0,0,0,-2.4182,-2.418,-2.4039,-2.4038,-2.4036,-2.3919,-2.3918,-2.3916,-2.3827,-2.3826,-2.3825,-2.3824,-2.3694,-2.369,-2.3687,0,0,0,0,0,0,0,0,0,0,0,0,0,-2.4097,-2.4179,-2.404,-2.3978,-2.3971,-2.392,-2.3918,-2.3916,-2.3827,-2.3826,-2.3825,-2.3824,-2.3695,-2.3691,-2.3686,-2.3684,0,0,-2.3674,-2.3672,0,0,0,0,0,0,0,0,-2.4102,-2.4091,-2.3989,-2.3982,-2.3975,-2.3887,-2.3919,-2.3837,-2.3827,-2.3882,-2.3825,-2.3823,-2.3758,-2.3748,-2.3728,-2.3677,-2.3672,-2.3673,-2.3671,-2.3669,-2.3668,0,0,0,0,0,0,0,-2.4108,-2.4096,-2.3991,-2.3987,-2.3979,-2.3953,-2.394,-2.3903,-2.3827,-2.3877,-2.387,-2.3858,-2.3753,-2.3732,-2.3724,-2.367,-2.3673,-2.367,-2.3667,-2.3665,-2.3608,-2.3609,0,0,0,0,0,0,-2.4124,-2.4102,-2.3995,-2.3988,-2.4037,-2.3952,-2.3937,-2.3916,-2.3827,-2.3813,-2.3859,-2.3854,-2.374,-2.3729,-2.3719,-2.3709,-2.3669,-2.3665,-2.3663,-2.3607,-2.3608,-2.3609,0,0,0,0,0,0,-2.4128,-2.4116,-2.4,-2.4043,-2.4026,-2.395,-2.3928,-2.3914,-2.3893,-2.3814,-2.3799,-2.3852,-2.3739,-2.3725,-2.3693,-2.3703,-2.3663,-2.3659,-2.3606,-2.3607,-2.3609,-2.3689,0,0,0,0,0,0,-2.4132,-2.4118,-2.4118,-2.4044,-2.4024,-2.398,-2.3929,-2.3913,-2.3887,-2.388,-2.3803,-2.3789,-2.3737,-2.37,-2.3689,-2.3696,-2.3656,-2.3604,-2.3606,-2.3608,-2.3685,-2.3693,-2.37,0,0,0,0,0,-2.4138,-2.4144,-2.4119,-2.4106,-2.4024,-2.398,-2.3969,-2.3911,-2.3888,-2.3887,-2.3835,-2.3792,-2.3704,-2.3697,-2.3684,-2.3691,-2.3604,-2.3606,-2.3608,-2.3682,-2.3692,-2.37,0,0,0,0,0,0,-2.4219,-2.4133,-2.4104,-2.4087,-2.4042,-2.3966,-2.3962,-2.3923,-2.3881,-2.3876,-2.3802,-2.3785,-2.3761,-2.3722,-2.3717,-2.3682,-2.3648,-2.3648,-2.3709,-2.3717,-2.3724,-2.3734,-2.3653,0,0,0,0,0,-2.4236,-2.4211,-2.4135,-2.4127,-2.4107,-2.4039,-2.4017,-2.3976,-2.3925,-2.3905,-2.3851,-2.3801,-2.3761,-2.3737,-2.3696,-2.3679,-2.3659,-2.3676,-2.3684,-2.369,-2.3691,-2.3676,-2.3682,-2.3616,-2.3616,-2.3616,0,0,-2.4268,-2.4218,-2.4207,-2.4143,-2.4103,-2.4075,-2.4023,-2.3996,-2.3974,-2.39,-2.3867,-2.3826,-2.3764,-2.3739,-2.3725,-2.3706,-2.3704,-2.3693,-2.3699,-2.3695,-2.3679,-2.3685,-2.3691,-2.3618,-2.3618,-2.3617,0,0,-2.4315,-2.4275,-2.4264,-2.4225,-2.4167,-2.4121,-2.4118,-2.4047,-2.4018,-2.3984,-2.3928,-2.3898,-2.3832,-2.379,-2.3761,-2.3789,-2.3746,-2.3777,-2.3816,-2.3803,-2.3808,-2.3812,-2.3821,-2.3825,-2.3778,-2.3778,-2.3778,0,-2.4362,-2.4322,-2.4262,-2.4239,-2.4212,-2.4145,-2.4132,-2.4096,-2.4026,-2.4007,-2.3987,-2.3902,-2.3856,-2.3819,-2.3827,-2.3805,-2.3797,-2.3786,-2.3813,-2.3816,-2.3819,-2.3826,-2.383,-2.3782,-2.3782,-2.3782,-2.3781,0,-2.4382,-2.4355,-2.4352,-2.4289,-2.4261,-2.4243,-2.4177,-2.4155,-2.4116,-2.4071,-2.4036,-2.3979,-2.3925,-2.3913,-2.3873,-2.387,-2.3859,-2.3827,-2.3791,-2.3831,-2.3836,-2.3839,-2.3788,-2.3787,-2.3786,-2.3785,0,0,-2.4478,-2.4382,-2.4382,-2.4352,-2.4281,-2.4257,-2.4234,-2.4184,-2.4165,-2.4118,-2.4095,-2.4041,-2.401,-2.3976,-2.3931,-2.392,-2.3944,-2.3888,-2.3885,-2.3899,-2.3934,-2.3959,-2.3963,-2.3915,-2.3915,-2.3916,-2.3939,0,-2.4512,-2.4472,-2.4416,-2.4392,-2.4365,-2.43,-2.428,-2.4232,-2.4189,-2.4157,-2.4107,-2.407,-2.4033,-2.4012,-2.3998,-2.3944,-2.395,-2.3942,-2.389,-2.3889,-2.3908,-2.3966,-2.3993,-2.4018,-2.394,-2.3941,-2.3941,0,-2.4548,-2.4507,-2.4482,-2.4413,-2.4399,-2.4382,-2.433,-2.4301,-2.4244,-2.4213,-2.4176,-2.4127,-2.4096,-2.4064,-2.4018,-2.4014,-2.3989,-2.3959,-2.3958,-2.3951,-2.3918,-2.396,-2.4024,-2.4028,-2.3944,-2.3944,-2.3944,0,-2.4619,-2.4557,-2.4534,-2.451,-2.4429,-2.4418,-2.4383,-2.4326,-2.4298,-2.4252,-2.4233,-2.4183,-2.4155,-2.4115,-2.4053,-2.4036,-2.4012,-2.3976,-2.3983,-2.3985,-2.3981,-2.3983,-2.4042,-2.3966,-2.3966,-2.3966,-2.3966,0,-2.4664,-2.465,-2.4565,-2.4551,-2.4532,-2.4467,-2.4449,-2.4408,-2.4357,-2.4331,-2.427,-2.4246,-2.4165,-2.413,-2.4081,-2.4049,-2.4037,-2.4008,-2.3995,-2.4014,-2.4018,-2.3996,-2.3993,-2.3967,-2.3967,-2.3967,-2.3967,0,-2.4741,-2.4683,-2.4653,-2.4579,-2.456,-2.455,-2.4484,-2.4465,-2.4419,-2.4386,-2.4374,-2.4299,-2.4255,-2.4189,-2.4123,-2.409,-2.4065,-2.4044,-2.4086,-2.4078,-2.4089,-2.4089,-2.4137,-2.4139,-2.4063,-2.4064,-2.4065,0,-2.4773,-2.4762,-2.4687,-2.4666,-2.4634,-2.4602,-2.4574,-2.4508,-2.4481,-2.4415,-2.4404,-2.4355,-2.4313,-2.4244,-2.4181,-2.413,-2.4107,-2.4127,-2.4099,-2.4117,-2.4106,-2.4108,-2.4105,-2.4134,-2.4135,-2.4136,-2.4137,0,-2.4837,-2.4809,-2.4773,-2.4727,-2.4697,-2.4657,-2.4613,-2.4599,-2.4522,-2.4494,-2.445,-2.4417,-2.4351,-2.4302,-2.4243,-2.4202,-2.4156,-2.4147,-2.4145,-2.4164,-2.4188,-2.4174,-2.4104,-2.4146,-2.4145,-2.4144,-2.4144,-2.4144,-2.4892,-2.4878,-2.4823,-2.4785,-2.4746,-2.4706,-2.4685,-2.4636,-2.4599,-2.4543,-2.4504,-2.4461,-2.4401,-2.4317,-2.4278,-2.4241,-2.4221,-2.422,-2.4219,-2.422,-2.4226,-2.4195,-2.4229,-2.4229,-2.4229,-2.4228,-2.4228,0,-2.4951,-2.4913,-2.4879,-2.4821,-2.479,-2.4752,-2.4701,-2.4677,-2.4641,-2.4591,-2.4551,-2.4498,-2.445,-2.4384,-2.433,-2.4312,-2.4289,-2.43,-2.43,-2.4291,-2.4247,-2.4253,-2.4319,-2.4319,-2.4319,-2.4319,-2.4319,-2.4319,-2.4979,-2.4954,-2.4919,-2.4872,-2.4832,-2.4792,-2.4766,-2.4728,-2.4687,-2.4632,-2.4594,-2.4552,-2.4493,-2.4435,-2.4387,-2.4369,-2.4351,-2.4368,-2.4343,-2.4303,-2.4295,-2.4287,-2.4292,-2.4365,-2.4365,-2.439,-2.439,-2.439]}]]